Location: Laupheim
(48.2265°N, 9.8829°E)
Time: 04:43:52
(UTC+01:00)

ISS - Visible Passes

Search period start: 23 November 2017 00:00
Search period end: 03 December 2017 00:00
Orbit: 402 x 407 km, 51.6° (Epoch: 23 November)

Date Brightness Start Highest point End Pass type
(mag) Time Alt. Az. Time Alt. Az. Time Alt. Az.
27 Nov -1.1 19:07:19 10° SSW 19:07:56 14° SSW 19:07:56 14° SSW visible
28 Nov -2.2 18:15:35 10° SSW 18:17:57 21° SSE 18:17:57 21° SSE visible
29 Nov -1.5 17:24:25 10° SSE 17:26:02 13° SE 17:27:39 10° ESE visible
29 Nov -2.0 18:58:44 10° SW 19:00:32 29° SW 19:00:32 29° SW visible
30 Nov -3.2 18:06:36 10° SW 18:09:42 41° SSE 18:10:23 36° ESE visible
30 Nov -0.2 19:42:55 10° W 19:43:02 11° W 19:43:02 11° W visible
01 Dec -2.3 17:14:41 10° SSW 17:17:28 25° SE 17:20:10 10° E visible
01 Dec -2.7 18:50:26 10° WSW 18:52:49 44° W 18:52:49 44° W visible
02 Dec -3.9 17:58:02 10° WSW 18:01:19 77° SSE 18:02:33 35° ENE visible
02 Dec -0.5 19:34:46 10° W 19:35:12 13° WNW 19:35:12 13° WNW visible
